DAL271 RJTT-KJFK

Flight info

Callsign DAL271
Flight time N/A
Altitude 35000
Route ROVER3A INUBO Y808 NOLAX Y812 ADNAP OTR5 KALNA DCT 44N160E 45N170E/N0497F330 46N180E 50N170W 54N160W/N0493F350 58N150W 59N140W 58N130W DCT ETGEL DCT DAXIN/N0487F370 DCT 55N101W DCT FERNO DCT SEGAN DCT SSM DCT KENPA DCT TETOS DCT FARGN DCT JHW Q476 WLKES PUCKY1
Aircraft B772/H-V/N

Departure

Time 2026-05-04 19:52
Airport Tokyo Haneda International Airport (RJTT)

Arrival

Time N/A
Airport John F. Kennedy International Airport (KJFK)
Time Latitude Longitude Altitude Speed Heading
2026-05-04 18:44 35.54709 139.76940 27 ft 0 kts 240°
2026-05-04 18:47 35.54710 139.76940 27 ft 0 kts 240°
2026-05-04 18:51 35.54710 139.76941 27 ft 0 kts 240°
2026-05-04 18:58 35.54710 139.76942 27 ft 0 kts 240°
2026-05-04 19:02 35.54711 139.76942 27 ft 0 kts 240°
2026-05-04 19:05 35.54711 139.76943 27 ft 0 kts 240°
2026-05-04 19:12 35.54711 139.76944 27 ft 0 kts 240°
2026-05-04 19:17 35.54712 139.76944 27 ft 0 kts 240°
2026-05-04 19:19 35.54712 139.76945 27 ft 0 kts 240°
2026-05-04 19:26 35.54712 139.76946 27 ft 0 kts 240°
2026-05-04 19:32 35.54713 139.76946 27 ft 0 kts 240°
2026-05-04 19:34 35.54713 139.76947 27 ft 0 kts 240°
2026-05-04 19:40 35.54721 139.76965 27 ft 4 kts 242°
2026-05-04 19:40 35.54734 139.76995 27 ft 4 kts 241°
2026-05-04 19:40 35.54746 139.77019 26 ft 4 kts 221°
2026-05-04 19:40 35.54766 139.77028 26 ft 4 kts 158°
2026-05-04 19:41 35.54788 139.77011 24 ft 4 kts 143°
2026-05-04 19:41 35.54799 139.77002 25 ft 3 kts 150°
2026-05-04 19:44 35.54742 139.77039 12 ft 20 kts 152°
2026-05-04 19:44 35.54597 139.77140 27 ft 24 kts 147°
2026-05-04 19:44 35.54452 139.77248 26 ft 24 kts 152°
2026-05-04 19:45 35.54359 139.77377 27 ft 20 kts 78°
2026-05-04 19:45 35.54427 139.77528 27 ft 20 kts 60°
2026-05-04 19:45 35.54395 139.77662 27 ft 18 kts 144°
2026-05-04 19:45 35.54286 139.77742 27 ft 18 kts 149°
2026-05-04 19:46 35.54146 139.77840 27 ft 33 kts 150°
2026-05-04 19:46 35.53957 139.77989 27 ft 25 kts 123°
2026-05-04 19:46 35.53993 139.78144 27 ft 20 kts 59°
2026-05-04 19:46 35.54072 139.78306 29 ft 27 kts 59°
2026-05-04 19:47 35.54180 139.78532 28 ft 32 kts 61°
2026-05-04 19:47 35.54290 139.78765 29 ft 32 kts 60°
2026-05-04 19:47 35.54400 139.79000 29 ft 32 kts 59°
2026-05-04 19:47 35.54513 139.79236 28 ft 32 kts 59°
2026-05-04 19:48 35.54620 139.79460 28 ft 24 kts 59°
2026-05-04 19:48 35.54666 139.79615 28 ft 19 kts 113°
2026-05-04 19:48 35.54561 139.79710 28 ft 19 kts 149°
2026-05-04 19:48 35.54427 139.79805 28 ft 24 kts 150°
2026-05-04 19:49 35.54279 139.79907 28 ft 24 kts 150°
2026-05-04 19:49 35.54135 139.80017 28 ft 24 kts 149°
2026-05-04 19:49 35.53989 139.80120 28 ft 24 kts 150°
2026-05-04 19:49 35.53876 139.80240 28 ft 19 kts 97°
2026-05-04 19:50 35.53929 139.80387 28 ft 19 kts 60°
2026-05-04 19:50 35.53983 139.80479 28 ft 10 kts 25°
2026-05-04 19:50 35.54036 139.80461 28 ft 0 kts 330°
2026-05-04 19:51 35.54047 139.80454 28 ft 14 kts 331°
2026-05-04 19:51 35.54340 139.80248 28 ft 82 kts 330°
2026-05-04 19:51 35.55021 139.79766 28 ft 142 kts 330°
2026-05-04 19:52 35.56025 139.79060 171 ft 180 kts 330°
2026-05-04 19:52 35.57111 139.78342 960 ft 175 kts 333°
2026-05-04 19:52 35.58180 139.77697 1883 ft 167 kts 338°
2026-05-04 19:52 35.59351 139.77580 2577 ft 181 kts
2026-05-04 19:53 35.60519 139.78347 3091 ft 206 kts 33°
2026-05-04 19:53 35.61425 139.79865 3417 ft 238 kts 63°
2026-05-04 19:53 35.61652 139.81952 3842 ft 260 kts 96°
2026-05-04 19:53 35.61054 139.84099 4008 ft 272 kts 111°
2026-05-04 19:54 35.60709 139.86362 4172 ft 272 kts 79°
2026-05-04 19:54 35.60963 139.88700 4350 ft 281 kts 82°
2026-05-04 19:54 35.61010 139.91132 4791 ft 287 kts 86°
2026-05-04 19:54 35.61329 139.93490 5084 ft 284 kts 58°
2026-05-04 19:55 35.62587 139.95303 5467 ft 274 kts 25°
2026-05-04 19:55 35.64312 139.96176 5934 ft 267 kts
2026-05-04 19:55 35.66144 139.96453 6428 ft 266 kts 357°
2026-05-04 19:55 35.68004 139.96552 6877 ft 269 kts 357°